Weather in Kuzomen

Russia / Murmansk Oblast     66°17′16″N   36°51′42″E
temp.,
°C
wind,
m/s
gust,
m/s
humid.,
%
clouds,
%
prec.,
mm/h
press.,
hPa
HPBL,
m
6 march, sat
sat600:00−12nne22850 0.0 100899
03:00−9ssw248623 0.0 1008410
06:00−9sw5692100 0.0 1006333
09:00−9ssw5693100 0.1 1004387
12:00−9s6790100 0.0 1002399
15:00−9s7991100 0.1 999433
18:00−8sse81089100 0.0 997482
21:00−8se91188100 0.0 995575
7 march, sun
sun700:00−8se91292100 0.0 994592
03:00−9ese111493100 0.0 995502
06:00−10e111492100 0.0 997481
09:00−11e10139296 0.0 1000445
12:00−11ene9129159 0.0 1004439
15:00−12ene7108848 0.0 1006457
18:00−16ne7109326 0.0 1009408
21:00−18ene7109920 0.0 1011412
8 march, mon
mon800:00−19ne6910038 0.0 1013372
03:00−19ne6810053 0.0 1014356
06:00−20ne5810087 0.0 1015351
09:00−20ne5710088 0.0 1016351
12:00−19ne469777 0.0 1017427
15:00−18ne458945 0.0 1018424
18:00−18nne34910 0.0 1018331
21:00−19nne329921 0.0 1018239
9 march, tue
tue900:00−18nne119958 0.0 1018284
03:00−14w579479 0.1 1017547
06:00−14nw81184100 0.1 1016393
09:00−15nne6987100 0.1 1018342
12:00−15nne237673 0.0 1019314
15:00−13nw347781 0.0 1019319
18:00−11nw687470 0.0 1019436
21:00−12nw698135 0.0 1019344
10 march, wed
wed1000:00−13nw588716 0.0 1019278
03:00−12nw579156 0.0 1019297
06:00−12nw5794100 0.0 1018311
09:00−13nw698378 0.0 1017341
12:00−8wnw7117646 0.0 1017590
15:00−8wnw8117337 0.0 1015649
18:00−8w8117649 0.0 1014633
21:00−9w9127771 0.0 1012641